Thelma

operational
NORAD ID: 26091 Int'l Des: 2000-004 Owner: SCU Country: US
LEOCIRCULARRETROGRADE

Über Thelma

Beschreibung wird geladen...

Live-Position

3D-Globus wird geladen...

Nächste Überflüge

Höhenverlauf

Altitude vs Time

uPlot chart will show altitude changes over time

Zweizeiliger Elementsatz

1 26091U 00004J 26061.17126472 .00002454 00000-0 52894-3 0 9993
2 26091 100.1769 149.8511 0023822 266.0674 93.7796 14.59500606374811
Epoch: 2. März 2026 • Age: 29 hours

Aktueller Status

Höhe 714.8 km
Geschwindigkeit 7.50 km/s
Subsatellitenpunkt 50.91°N, 102.17°E
Startdatum 27. Jan. 2000
Alter 26 years
Typ other

Technische Details

Klassifizierung Payload
Masse 0.50 kg
Trockenmasse 0.50 kg
Gesamtmasse 0.50 kg
Länge 0.03 m
Durchmesser 0.20 m
Spannweite 0.20 m
Form Box
Hersteller SCU
Bus-Typ Picosat
Phasenstatus In Orbit
Besitzer/Staat SCU/US

Große Konstellationen

Loading constellations...